Location: Ostrava
(49.8330°N, 18.2830°E)
Time: 03:09:29
(UTC+02:00)

Envisat - Pass Details

Date: 20 January 2022
Orbit: 764 x 765 km, 98.2° (Epoch: 22 May)

Event Time Altitude Azimuth Distance (km) Brightness Sun altitude
Rises 03:59:27 0° 21° (NNE) 3,242 6.6 -34.2°
Reaches altitude 10° 04:02:00 10° 31° (NNE) 2,311 5.9 -33.8°
Maximum altitude 04:06:34 32° 95° (E) 1,284 4.6 -33.1°
Drops below altitude 10° 04:11:05 10° 158° (SSE) 2,296 5.6 -32.3°
Sets 04:13:36 0° 168° (SSE) 3,217 6.3 -31.9°
